Time,TemperatureF,DewpointF,PressureIn,WindDirection,WindDirectionDegrees,WindSpeedMPH,WindSpeedGustMPH,Humidity,HourlyPrecipIn,Conditions,Clouds,dailyrainin,SoftwareType,DateUTC
2014-09-22 00:23:00,67.0,66.0,29.98,SE,142,0.0,1.0,97,0.00,,,0.00,,2014-09-22 05:23:00,
2014-09-22 00:43:00,67.0,66.0,29.98,SE,142,0.0,0.0,97,0.00,,,0.00,,2014-09-22 05:43:00,
2014-09-22 00:53:00,67.0,66.0,29.99,SE,142,0.0,0.0,97,0.00,,,0.00,,2014-09-22 05:53:00,
2014-09-22 01:12:00,67.0,66.0,29.99,SE,142,0.0,0.0,97,0.00,,,0.00,,2014-09-22 06:12:00,
2014-09-22 01:22:00,67.0,66.0,29.98,SE,142,0.0,1.0,97,0.00,,,0.00,,2014-09-22 06:22:00,
2014-09-22 01:43:00,66.0,65.0,29.99,SE,142,0.0,0.0,97,0.00,,,0.00,,2014-09-22 06:43:00,
2014-09-22 01:52:00,66.0,65.0,29.98,SE,142,0.0,1.0,97,0.00,,,0.00,,2014-09-22 06:52:00,
2014-09-22 02:12:00,66.0,65.0,29.98,SE,142,0.0,0.0,97,0.00,,,0.00,,2014-09-22 07:12:00,
2014-09-22 02:22:00,66.0,65.0,29.98,SE,142,0.0,0.0,98,0.00,,,0.00,,2014-09-22 07:22:00,
2014-09-22 02:43:00,65.0,64.0,29.98,SE,142,0.0,1.0,98,0.00,,,0.00,,2014-09-22 07:43:00,
2014-09-22 02:52:00,66.0,65.0,29.98,SE,142,0.0,1.0,98,0.00,,,0.00,,2014-09-22 07:52:00,
2014-09-22 03:22:00,65.0,64.0,29.98,SE,142,0.0,1.0,98,0.00,,,0.00,,2014-09-22 08:22:00,
2014-09-22 03:42:00,65.0,64.0,29.98,SE,142,0.0,1.0,98,0.00,,,0.00,,2014-09-22 08:42:00,
2014-09-22 03:52:00,65.0,64.0,29.98,SE,142,0.0,0.0,98,0.00,,,0.00,,2014-09-22 08:52:00,
2014-09-22 04:12:00,65.0,64.0,29.98,SE,142,0.0,0.0,98,0.00,,,0.00,,2014-09-22 09:12:00,
2014-09-22 04:22:00,65.0,64.0,29.98,SE,142,0.0,0.0,98,0.00,,,0.00,,2014-09-22 09:22:00,
2014-09-22 04:44:00,64.0,63.0,29.98,SE,142,0.0,1.0,98,0.00,,,0.00,,2014-09-22 09:44:00,
2014-09-22 04:54:00,64.0,63.0,29.99,SE,142,0.0,1.0,98,0.00,,,0.00,,2014-09-22 09:54:00,
2014-09-22 05:13:00,64.0,63.0,29.99,SE,142,0.0,0.0,98,0.00,,,0.00,,2014-09-22 10:13:00,
2014-09-22 05:23:00,64.0,63.0,29.99,SE,142,0.0,1.0,98,0.00,,,0.00,,2014-09-22 10:23:00,
2014-09-22 05:43:00,64.0,63.0,29.99,SE,142,0.0,1.0,98,0.00,,,0.00,,2014-09-22 10:43:00,
2014-09-22 05:54:00,64.0,63.0,30.00,SE,142,0.0,0.0,98,0.00,,,0.00,,2014-09-22 10:54:00,
2014-09-22 06:23:00,64.0,64.0,30.00,SE,142,0.0,0.0,99,0.00,,,0.00,,2014-09-22 11:23:00,
2014-09-22 06:42:00,64.0,63.0,30.00,SE,142,0.0,0.0,98,0.00,,,0.00,,2014-09-22 11:42:00,
2014-09-22 06:52:00,64.0,63.0,30.01,SE,142,0.0,0.0,98,0.00,,,0.00,,2014-09-22 11:52:00,
2014-09-22 07:23:00,64.0,64.0,30.01,SE,142,0.0,1.0,99,0.00,,,0.00,,2014-09-22 12:23:00,
2014-09-22 07:42:00,65.0,65.0,30.01,SE,142,0.0,0.0,99,0.00,,,0.00,,2014-09-22 12:42:00,
2014-09-22 07:53:00,67.0,66.0,30.01,SE,141,0.0,1.0,98,0.00,,,0.00,,2014-09-22 12:53:00,
2014-09-22 08:22:00,74.0,72.0,30.02,SE,142,0.0,0.0,93,0.00,,,0.00,,2014-09-22 13:22:00,
2014-09-22 08:42:00,76.0,72.0,30.03,WNW,302,0.0,2.0,88,0.00,,,0.00,,2014-09-22 13:42:00,
2014-09-22 08:52:00,76.0,72.0,30.03,WNW,298,1.0,4.0,88,0.00,,,0.00,,2014-09-22 13:52:00,
2014-09-22 09:22:00,79.0,73.0,30.03,NW,316,2.0,6.0,81,0.00,,,0.00,,2014-09-22 14:22:00,
2014-09-22 09:43:00,79.0,72.0,30.03,NNW,332,5.0,9.0,80,0.00,,,0.00,,2014-09-22 14:43:00,
2014-09-22 09:52:00,80.0,73.0,30.03,NNW,338,5.0,8.0,79,0.00,,,0.00,,2014-09-22 14:52:00,
2014-09-22 10:22:00,81.0,72.0,30.03,NNW,338,2.0,7.0,74,0.00,,,0.00,,2014-09-22 15:22:00,
2014-09-22 10:44:00,82.0,72.0,30.02,NW,326,3.0,7.0,72,0.00,,,0.00,,2014-09-22 15:44:00,
2014-09-22 10:55:00,83.0,71.0,30.01,NW,314,4.0,7.0,68,0.00,,,0.00,,2014-09-22 15:55:00,
2014-09-22 11:24:00,85.0,71.0,30.00,WNW,293,2.0,6.0,64,0.00,,,0.00,,2014-09-22 16:24:00,
2014-09-22 11:54:00,87.0,69.0,30.00,WNW,296,1.0,5.0,55,0.00,,,0.00,,2014-09-22 16:54:00,
2014-09-22 12:21:00,88.0,-99.9,30.00,NNW,334,0.0,4.0,58,0.00,,,0.00,,2014-09-22 17:21:00,
2014-09-22 12:43:00,89.0,72.0,30.01,SSW,200,0.0,4.0,57,0.00,,,0.00,,2014-09-22 17:43:00,
2014-09-22 12:53:00,90.0,71.0,30.00,NW,319,2.0,4.0,53,0.00,,,0.00,,2014-09-22 17:53:00,
2014-09-22 13:12:00,89.0,70.0,29.98,WNW,299,1.0,7.0,53,0.00,,,0.00,,2014-09-22 18:12:00,
2014-09-22 13:22:00,90.0,72.0,29.97,North,6,2.0,5.0,56,0.00,,,0.00,,2014-09-22 18:22:00,
2014-09-22 13:42:00,89.0,69.0,29.96,NNW,338,4.0,6.0,52,0.00,,,0.00,,2014-09-22 18:42:00,
2014-09-22 13:53:00,89.0,68.0,29.96,WNW,302,5.0,8.0,51,0.00,,,0.00,,2014-09-22 18:53:00,
2014-09-22 14:22:00,85.0,73.0,29.96,NNW,333,8.0,19.0,68,0.00,,,0.00,,2014-09-22 19:22:00,
2014-09-22 14:53:00,81.0,74.0,29.95,NNW,332,5.0,9.0,80,0.00,,,0.00,,2014-09-22 19:53:00,
2014-09-22 15:23:00,84.0,74.0,29.95,WNW,303,5.0,11.0,72,0.00,,,0.00,,2014-09-22 20:23:00,
2014-09-22 15:42:00,83.0,73.0,29.95,NNW,330,7.0,12.0,73,0.00,,,0.00,,2014-09-22 20:42:00,
2014-09-22 15:52:00,84.0,74.0,29.94,NNE,18,6.0,11.0,71,0.00,,,0.00,,2014-09-22 20:52:00,
2014-09-22 16:22:00,83.0,73.0,29.95,NW,323,7.0,14.0,71,0.00,,,0.00,,2014-09-22 21:22:00,
2014-09-22 16:43:00,82.0,72.0,29.95,NW,311,9.0,15.0,71,0.00,,,0.00,,2014-09-22 21:43:00,
2014-09-22 16:54:00,82.0,72.0,29.95,NNW,332,6.0,12.0,71,0.00,,,0.00,,2014-09-22 21:54:00,
2014-09-22 17:03:00,82.0,72.0,29.95,NNW,332,6.0,12.0,71,0.00,,,0.00,,2014-09-22 22:03:00,
2014-09-22 17:23:00,82.0,72.0,29.95,NNE,16,2.0,13.0,72,0.00,,,0.00,,2014-09-22 22:23:00,
2014-09-22 17:43:00,81.0,72.0,29.96,NNW,330,4.0,11.0,74,0.00,,,0.00,,2014-09-22 22:43:00,
2014-09-22 17:53:00,81.0,72.0,29.96,North,355,3.0,9.0,75,0.00,,,0.00,,2014-09-22 22:53:00,
2014-09-22 18:22:00,80.0,72.0,29.97,NNW,328,1.0,5.0,76,0.00,,,0.00,,2014-09-22 23:22:00,
2014-09-22 18:42:00,80.0,70.0,29.97,NE,37,4.0,9.0,72,0.00,,,0.00,,2014-09-22 23:42:00,
2014-09-22 18:52:00,79.0,70.0,29.97,NNE,15,2.0,8.0,73,0.00,,,0.00,,2014-09-22 23:52:00,
2014-09-22 19:12:00,78.0,69.0,29.98,NNW,341,0.0,6.0,74,0.00,,,0.00,,2014-09-23 00:12:00,
2014-09-22 19:22:00,77.0,68.0,29.98,NW,320,0.0,3.0,74,0.00,,,0.00,,2014-09-23 00:22:00,
2014-09-22 19:43:00,76.0,67.0,29.99,NNE,25,0.0,2.0,74,0.00,,,0.00,,2014-09-23 00:43:00,
2014-09-22 19:52:00,75.0,66.0,29.99,NW,321,0.0,3.0,74,0.00,,,0.00,,2014-09-23 00:52:00,
2014-09-22 20:22:00,72.0,65.0,30.01,NE,44,0.0,1.0,80,0.00,,,0.00,,2014-09-23 01:22:00,
2014-09-22 20:42:00,72.0,65.0,30.01,NE,36,0.0,1.0,80,0.00,,,0.00,,2014-09-23 01:42:00,
2014-09-22 20:52:00,71.0,66.0,30.01,NNE,20,0.0,1.0,84,0.00,,,0.00,,2014-09-23 01:52:00,
2014-09-22 21:22:00,68.0,65.0,30.02,NNE,20,0.0,1.0,90,0.00,,,0.00,,2014-09-23 02:22:00,
2014-09-22 21:42:00,68.0,65.0,30.02,NNE,20,0.0,0.0,91,0.00,,,0.00,,2014-09-23 02:42:00,